Weather History for Dillon, MT

Change the Weather History Date:

Wednesday, October 16, 2013

  Actual Average Record
Temperature  
Mean Temperature 38 °F 44 °F  
Max Temperature 50 °F 57 °F 78 °F (1974)
Min Temperature 25 °F 30 °F 14 °F (1951)
Degree Days  
Heating Degree Days 27    
Month to date heating degree days 396  
Since 1 July heating degree days 643  
Cooling Degree Days 0    
Month to date cooling degree days 0  
Year to date cooling degree days 247  
Moisture  
Dew Point 24 °F    
Average Humidity 61    
Maximum Humidity 82    
Minimum Humidity 39    
Precipitation  
Precipitation 0.00 in 0.03 in 0.39 in (2012)
Month to date precipitation T 0.44  
Year to date precipitation 9.46 9.61  
Snow  
Snow 0.00 in - - ()
Snow Depth 0.00 in    
Sea Level Pressure  
Sea Level Pressure 30.15 in    
Wind  
Wind Speed 6 mph (WSW)    
Max Wind Speed 15 mph    
Max Gust Speed 18 mph    
Visibility 10 miles    
Events      
T = Trace of Precipitation, MM = Missing Value Source: NWS Daily Summary

Daily Weather History Graph

Daily Weather History Graph

Search for Another Location

Airport:

Trip Planner

Search our weather history database for the weather conditions in past years. The results will help you decide how hot, cold, wet, or windy it might be!

Date:

Astronomy

Oct. 16, 2013 Rise Set
Actual Time 7:47 AM MDT 6:42 PM MDT
Civil Twilight 7:18 AM MDT 7:12 PM MDT
Nautical Twilight 6:43 AM MDT 7:46 PM MDT
Astronomical Twilight 6:09 AM MDT 8:20 PM MDT
Moon 5:28 PM MDT (10/16) 5:14 AM MDT (10/16)
Length of Visible Light 11h 54m
Length of Day
10h 54m
Waxing Gibbous, 94% of the Moon is Illuminated
Oct 16
Waxing Gibbous
Oct 18
Full
Oct 26
Last Quarter
Nov 3
New
Nov 9
First Quarter

Hourly Weather History & Observations

Time (MDT) Temp. Windchill Dew Point Humidity Pressure Visibility Wind Dir Wind Speed Gust Speed Precip Events Conditions
12:53 AM 30.0 °F 21.7 °F 19.9 °F 66% 30.19 in 10.0 mi SSW 9.2 mph - N/A   Clear
1:53 AM 27.0 °F 18.7 °F 19.9 °F 75% 30.19 in 10.0 mi SW 8.1 mph - N/A   Clear
2:53 AM 26.1 °F 18.4 °F 19.0 °F 75% 30.19 in 10.0 mi SW 6.9 mph - N/A   Clear
3:53 AM 26.1 °F 19.4 °F 19.0 °F 75% 30.17 in 10.0 mi SW 5.8 mph - N/A   Clear
4:53 AM 27.0 °F 18.7 °F 19.0 °F 72% 30.15 in 10.0 mi South 8.1 mph - N/A   Clear
5:53 AM 27.0 °F 17.3 °F 19.0 °F 72% 30.14 in 10.0 mi SW 10.4 mph - N/A   Clear
6:53 AM 27.0 °F 18.7 °F 18.0 °F 69% 30.19 in 10.0 mi South 8.1 mph - N/A   Clear
7:53 AM 27.0 °F 18.7 °F 19.0 °F 72% 30.19 in 10.0 mi SSW 8.1 mph - N/A   Clear
8:53 AM 30.0 °F 25.2 °F 21.0 °F 69% 30.21 in 10.0 mi SW 4.6 mph - N/A   Clear
9:53 AM 34.0 °F 29.8 °F 21.9 °F 61% 30.19 in 10.0 mi SSW 4.6 mph - N/A   Clear
10:53 AM 37.9 °F 35.5 °F 26.1 °F 62% 30.16 in 10.0 mi NW 3.5 mph - N/A   Mostly Cloudy
11:53 AM 39.9 °F - 26.1 °F 58% 30.17 in 10.0 mi Calm Calm - N/A   Overcast
12:53 PM 44.1 °F 40.8 °F 26.1 °F 49% 30.13 in 10.0 mi NNW 5.8 mph - N/A   Mostly Cloudy
1:53 PM 45.0 °F - 26.1 °F 48% 30.12 in 10.0 mi Calm Calm - N/A   Overcast
2:53 PM 46.0 °F 44.8 °F 25.0 °F 44% 30.10 in 10.0 mi NNW 3.5 mph - N/A   Overcast
3:53 PM 48.9 °F - 25.0 °F 39% 30.08 in 10.0 mi NNW 4.6 mph - N/A   Overcast
4:53 PM 48.9 °F - 25.0 °F 39% 30.08 in 10.0 mi NNE 8.1 mph - N/A   Overcast
5:53 PM 45.0 °F - 28.9 °F 53% 30.10 in 10.0 mi Calm Calm - N/A   Overcast
6:53 PM 43.0 °F - 28.9 °F 58% 30.12 in 6.0 mi Calm Calm - N/A   Haze
7:38 PM 39.2 °F 33.0 °F 26.6 °F 61% 30.10 in 10.0 mi NE 9.2 mph - N/A   Overcast
7:53 PM 39.9 °F 32.5 °F 26.1 °F 58% 30.15 in 10.0 mi NE 12.7 mph - N/A   Overcast
8:53 PM 39.0 °F 35.7 °F 27.0 °F 62% 30.16 in 10.0 mi East 4.6 mph - N/A   Overcast
9:53 PM 37.9 °F 32.7 °F 27.0 °F 65% 30.17 in 10.0 mi NE 6.9 mph - N/A   Overcast
10:53 PM 37.9 °F - 28.9 °F 70% 30.16 in 10.0 mi Calm Calm - N/A   Overcast
11:53 PM 35.1 °F 29.3 °F 30.0 °F 82% 30.16 in 10.0 mi NE 6.9 mph - N/A   Overcast